ITY425 LICJ-LICJ

Flight info

Callsign ITY425
Flight time 0h 45m
Altitude 14000
Route ROSAS DCT GIANO DCT ADUKA DCT KAPIL
Aircraft A320/M-SDE3FGHIRWY/LB1

Departure

Time 2026-04-30 19:20
Airport Falcone–Borsellino Airport (LICJ)

Arrival

Time 2026-04-30 20:06
Airport Falcone–Borsellino Airport (LICJ)
Time Latitude Longitude Altitude Speed Heading
2026-04-30 18:11 38.18534 13.10558 53 ft 0 kts 337°
2026-04-30 18:13 38.18569 13.10665 53 ft 0 kts 337°
2026-04-30 19:06 38.18556 13.10672 51 ft 4 kts 337°
2026-04-30 19:07 38.18511 13.10693 53 ft 3 kts 11°
2026-04-30 19:07 38.18505 13.10691 48 ft 0 kts 29°
2026-04-30 19:08 38.18489 13.10682 48 ft 2 kts 339°
2026-04-30 19:08 38.18476 13.10695 51 ft 2 kts 268°
2026-04-30 19:09 38.18493 13.10732 53 ft 2 kts 220°
2026-04-30 19:09 38.18502 13.10745 50 ft 0 kts 246°
2026-04-30 19:10 38.18502 13.10744 50 ft 0 kts 246°
2026-04-30 19:11 38.18502 13.10743 49 ft 0 kts 246°
2026-04-30 19:11 38.18501 13.10739 53 ft 0 kts 246°
2026-04-30 19:11 38.18500 13.10738 53 ft 0 kts 246°
2026-04-30 19:12 38.18499 13.10735 53 ft 0 kts 246°
2026-04-30 19:13 38.18499 13.10733 53 ft 1 kts 249°
2026-04-30 19:13 38.18491 13.10708 52 ft 5 kts 250°
2026-04-30 19:14 38.18477 13.10659 53 ft 7 kts 251°
2026-04-30 19:14 38.18458 13.10593 53 ft 9 kts 247°
2026-04-30 19:14 38.18431 13.10513 53 ft 11 kts 246°
2026-04-30 19:14 38.18395 13.10424 51 ft 12 kts 243°
2026-04-30 19:15 38.18359 13.10321 51 ft 13 kts 245°
2026-04-30 19:15 38.18284 13.10087 51 ft 15 kts 244°
2026-04-30 19:15 38.18213 13.09993 50 ft 16 kts 196°
2026-04-30 19:16 38.18138 13.09911 53 ft 15 kts 243°
2026-04-30 19:16 38.18051 13.09857 53 ft 14 kts 214°
2026-04-30 19:16 38.17960 13.09623 53 ft 15 kts 261°
2026-04-30 19:17 38.17922 13.09497 53 ft 16 kts 246°
2026-04-30 19:17 38.17834 13.09236 52 ft 16 kts 247°
2026-04-30 19:17 38.17788 13.09104 53 ft 17 kts 245°
2026-04-30 19:18 38.17685 13.08898 53 ft 17 kts 217°
2026-04-30 19:18 38.17641 13.08857 51 ft 0 kts 216°
2026-04-30 19:19 38.17612 13.08830 53 ft 20 kts 214°
2026-04-30 19:19 38.17511 13.08889 53 ft 15 kts 66°
2026-04-30 19:20 38.17568 13.09058 53 ft 42 kts 66°
2026-04-30 19:20 38.17777 13.09678 53 ft 108 kts 66°
2026-04-30 19:20 38.18523 13.11919 857 ft 139 kts 66°
2026-04-30 19:21 38.18907 13.13062 1428 ft 146 kts 66°
2026-04-30 19:21 38.19831 13.15804 2050 ft 191 kts 67°
2026-04-30 19:22 38.21117 13.19262 2846 ft 241 kts 51°
2026-04-30 19:22 38.25836 13.22241 5464 ft 261 kts 22°
2026-04-30 19:23 38.31057 13.24977 7952 ft 277 kts 20°
2026-04-30 19:24 38.34659 13.26884 9709 ft 284 kts 19°
2026-04-30 19:24 38.36497 13.27860 10433 ft 293 kts 19°
2026-04-30 19:24 38.40525 13.29997 11248 ft 327 kts 19°
2026-04-30 19:25 38.46934 13.33429 13512 ft 339 kts 18°
2026-04-30 19:26 38.51292 13.35768 14077 ft 340 kts 18°
2026-04-30 19:26 38.55521 13.38051 14108 ft 325 kts 18°
2026-04-30 19:26 38.57602 13.39167 14109 ft 325 kts 18°
2026-04-30 19:27 38.61776 13.41402 14105 ft 325 kts 18°
2026-04-30 19:27 38.65947 13.43637 14109 ft 325 kts 18°
2026-04-30 19:28 38.68031 13.44756 14102 ft 325 kts 18°
2026-04-30 19:28 38.72199 13.46999 14108 ft 325 kts 18°
2026-04-30 19:29 38.76360 13.49238 14111 ft 325 kts 17°
2026-04-30 19:29 38.78524 13.49947 14126 ft 316 kts 359°
2026-04-30 19:30 38.84130 13.46680 14130 ft 303 kts 306°
2026-04-30 19:30 38.85335 13.41570 14128 ft 307 kts 274°
2026-04-30 19:31 38.85442 13.36082 14124 ft 308 kts 274°
2026-04-30 19:31 38.85496 13.33347 14122 ft 308 kts 274°
2026-04-30 19:31 38.85604 13.27845 14127 ft 309 kts 274°
2026-04-30 19:32 38.85656 13.25087 14126 ft 309 kts 274°
2026-04-30 19:32 38.85709 13.22337 14125 ft 309 kts 274°
2026-04-30 19:32 38.85758 13.19578 14125 ft 309 kts 274°
2026-04-30 19:32 38.85808 13.16819 14129 ft 309 kts 274°
2026-04-30 19:33 38.85859 13.14069 14125 ft 309 kts 274°
2026-04-30 19:33 38.85910 13.11311 14122 ft 309 kts 274°
2026-04-30 19:33 38.85959 13.08554 14117 ft 309 kts 274°
2026-04-30 19:33 38.86004 13.05833 14124 ft 309 kts 274°
2026-04-30 19:34 38.86051 13.03049 14120 ft 309 kts 274°
2026-04-30 19:34 38.86098 13.00293 14127 ft 309 kts 274°
2026-04-30 19:34 38.86192 12.94822 14122 ft 309 kts 274°
2026-04-30 19:35 38.86238 12.92060 14132 ft 309 kts 274°
2026-04-30 19:35 38.86285 12.89308 14127 ft 309 kts 274°
2026-04-30 19:35 38.86335 12.86554 14126 ft 308 kts 274°
2026-04-30 19:35 38.86380 12.83809 14127 ft 308 kts 274°
2026-04-30 19:36 38.86425 12.81018 14127 ft 308 kts 274°
2026-04-30 19:36 38.86466 12.78301 14127 ft 308 kts 274°
2026-04-30 19:36 38.86547 12.72802 14124 ft 308 kts 274°
2026-04-30 19:37 38.86587 12.70051 14122 ft 308 kts 274°
2026-04-30 19:37 38.86626 12.67270 14123 ft 308 kts 274°
2026-04-30 19:37 38.86662 12.64547 14124 ft 308 kts 274°
2026-04-30 19:37 38.86699 12.61798 14128 ft 308 kts 274°
2026-04-30 19:38 38.86736 12.59045 14125 ft 308 kts 274°
2026-04-30 19:38 38.86774 12.56292 14126 ft 308 kts 274°
2026-04-30 19:38 38.86809 12.53540 14126 ft 308 kts 274°
2026-04-30 19:38 38.86845 12.50790 14126 ft 308 kts 274°
2026-04-30 19:39 38.86868 12.48964 14132 ft 308 kts 274°
2026-04-30 19:39 38.86704 12.46217 14131 ft 312 kts 261°
2026-04-30 19:39 38.85993 12.43572 14130 ft 317 kts 247°
2026-04-30 19:39 38.84764 12.41203 14130 ft 322 kts 236°
2026-04-30 19:40 38.83375 12.38955 14117 ft 322 kts 236°
2026-04-30 19:40 38.81983 12.36705 14116 ft 322 kts 236°
2026-04-30 19:40 38.80591 12.34452 14116 ft 322 kts 236°
2026-04-30 19:40 38.79206 12.32205 14118 ft 322 kts 236°
2026-04-30 19:41 38.77817 12.29950 14114 ft 322 kts 236°
2026-04-30 19:41 38.76427 12.27695 14116 ft 322 kts 236°
2026-04-30 19:41 38.75039 12.25440 14114 ft 322 kts 236°
2026-04-30 19:41 38.73654 12.23194 14115 ft 322 kts 236°
2026-04-30 19:42 38.72276 12.20966 14121 ft 322 kts 236°
2026-04-30 19:42 38.70871 12.18692 14117 ft 322 kts 236°
2026-04-30 19:42 38.69496 12.16473 14118 ft 322 kts 236°
2026-04-30 19:42 38.68102 12.14225 14118 ft 322 kts 236°
2026-04-30 19:43 38.66711 12.11973 14116 ft 322 kts 236°
2026-04-30 19:43 38.65321 12.09725 14116 ft 322 kts 236°
2026-04-30 19:43 38.63932 12.07484 14117 ft 322 kts 236°
2026-04-30 19:44 38.61142 12.02994 14116 ft 322 kts 236°
2026-04-30 19:44 38.59753 12.00755 14117 ft 322 kts 236°
2026-04-30 19:44 38.58142 11.98740 14115 ft 329 kts 217°
2026-04-30 19:44 38.56000 11.97630 14114 ft 339 kts 193°
2026-04-30 19:45 38.53637 11.97744 14111 ft 347 kts 167°
2026-04-30 19:45 38.51458 11.99096 14106 ft 351 kts 148°
2026-04-30 19:45 38.49420 12.00829 14093 ft 352 kts 148°
2026-04-30 19:45 38.47386 12.02568 14090 ft 353 kts 148°
2026-04-30 19:46 38.45340 12.04317 14087 ft 354 kts 148°
2026-04-30 19:46 38.43290 12.06065 14091 ft 354 kts 148°
2026-04-30 19:46 38.41245 12.07806 14094 ft 354 kts 148°
2026-04-30 19:46 38.39211 12.09587 14089 ft 355 kts 142°
2026-04-30 19:47 38.37478 12.11831 14088 ft 356 kts 127°
2026-04-30 19:47 38.36598 12.13589 14089 ft 356 kts 116°
2026-04-30 19:47 38.35560 12.17504 13792 ft 344 kts 96°
2026-04-30 19:47 38.35403 12.20484 13519 ft 336 kts 89°
2026-04-30 19:48 38.35332 12.23439 13255 ft 331 kts 89°
2026-04-30 19:48 38.35257 12.26349 12998 ft 327 kts 89°
2026-04-30 19:48 38.35179 12.29234 12740 ft 325 kts 89°
2026-04-30 19:48 38.35099 12.32096 12487 ft 323 kts 89°
2026-04-30 19:49 38.35017 12.34951 12224 ft 321 kts 89°
2026-04-30 19:49 38.34856 12.40615 11724 ft 318 kts 89°
2026-04-30 19:49 38.34775 12.43426 11486 ft 316 kts 89°
2026-04-30 19:50 38.34695 12.46214 11239 ft 315 kts 89°
2026-04-30 19:50 38.34616 12.49008 10994 ft 313 kts 89°
2026-04-30 19:50 38.34537 12.51744 10752 ft 307 kts 89°
2026-04-30 19:50 38.34458 12.54445 10511 ft 301 kts 89°
2026-04-30 19:51 38.34379 12.57082 10272 ft 296 kts 88°
2026-04-30 19:51 38.34302 12.59707 10108 ft 288 kts 90°
2026-04-30 19:51 38.34228 12.62220 10071 ft 283 kts 89°
2026-04-30 19:51 38.34156 12.64694 10070 ft 272 kts 89°
2026-04-30 19:52 38.34085 12.67055 10068 ft 263 kts 88°
2026-04-30 19:52 38.34016 12.69369 10082 ft 261 kts 89°
2026-04-30 19:52 38.33949 12.71658 10079 ft 259 kts 89°
2026-04-30 19:52 38.33882 12.73957 9987 ft 263 kts 89°
2026-04-30 19:53 38.33957 12.76332 9256 ft 274 kts 76°
2026-04-30 19:53 38.34522 12.78678 8515 ft 284 kts 64°
2026-04-30 19:53 38.35320 12.81011 7863 ft 293 kts 64°
2026-04-30 19:53 38.36130 12.83386 7629 ft 284 kts 64°
2026-04-30 19:54 38.36890 12.85626 7471 ft 273 kts 65°
2026-04-30 19:54 38.37635 12.87835 7327 ft 262 kts 64°
2026-04-30 19:54 38.38335 12.89916 7190 ft 251 kts 64°
2026-04-30 19:54 38.39009 12.91919 7071 ft 241 kts 64°
2026-04-30 19:55 38.39491 12.93922 6960 ft 241 kts 85°
2026-04-30 19:55 38.39116 12.96020 6839 ft 244 kts 121°
2026-04-30 19:55 38.37898 12.97496 6704 ft 245 kts 154°
2026-04-30 19:55 38.36349 12.98417 6567 ft 246 kts 157°
2026-04-30 19:56 38.34788 12.99324 6418 ft 246 kts 156°
2026-04-30 19:56 38.33183 13.00011 6276 ft 243 kts 178°
2026-04-30 19:56 38.31554 12.99643 6146 ft 238 kts 210°
2026-04-30 19:56 38.30327 12.98291 6023 ft 233 kts 239°
2026-04-30 19:57 38.29627 12.96446 5898 ft 233 kts 250°
2026-04-30 19:57 38.28985 12.94542 5777 ft 234 kts 248°
2026-04-30 19:57 38.28345 12.92633 5655 ft 233 kts 248°
2026-04-30 19:57 38.27718 12.90774 5528 ft 223 kts 249°
2026-04-30 19:58 38.27117 12.88996 5417 ft 216 kts 249°
2026-04-30 19:58 38.26526 12.87246 5314 ft 213 kts 250°
2026-04-30 19:58 38.25953 12.85553 5242 ft 202 kts 249°
2026-04-30 19:58 38.25242 12.84071 5111 ft 192 kts 225°
2026-04-30 19:59 38.24158 12.83197 5021 ft 179 kts 195°
2026-04-30 19:59 38.22989 12.83017 5002 ft 164 kts 171°
2026-04-30 19:59 38.20776 12.84033 5004 ft 189 kts 153°
2026-04-30 20:00 38.19568 12.84688 5019 ft 190 kts 153°
2026-04-30 20:00 38.18348 12.85346 4998 ft 192 kts 153°
2026-04-30 20:00 38.17094 12.86023 4584 ft 201 kts 155°
2026-04-30 20:00 38.15771 12.86739 4040 ft 212 kts 154°
2026-04-30 20:01 38.13049 12.88208 3203 ft 205 kts 153°
2026-04-30 20:01 38.11959 12.89252 3060 ft 193 kts 120°
2026-04-30 20:01 38.11576 12.90822 2909 ft 187 kts 86°
2026-04-30 20:02 38.12591 12.93685 2515 ft 172 kts 65°
2026-04-30 20:02 38.13037 12.95049 2340 ft 163 kts 68°
2026-04-30 20:03 38.13830 12.97616 1934 ft 149 kts 68°
2026-04-30 20:03 38.14203 12.98799 1736 ft 140 kts 66°
2026-04-30 20:03 38.14565 12.99925 1584 ft 136 kts 67°
2026-04-30 20:03 38.14922 13.01023 1397 ft 134 kts 65°
2026-04-30 20:04 38.15278 13.02111 1217 ft 132 kts 66°
2026-04-30 20:04 38.15632 13.03186 1040 ft 131 kts 64°
2026-04-30 20:04 38.15984 13.04249 856 ft 130 kts 65°
2026-04-30 20:05 38.16722 13.06301 579 ft 126 kts 65°
2026-04-30 20:05 38.17032 13.07330 406 ft 124 kts 71°
2026-04-30 20:05 38.17689 13.09334 115 ft 122 kts 71°
2026-04-30 20:06 38.17973 13.10289 53 ft 90 kts 65°
2026-04-30 20:06 38.18108 13.10663 51 ft 2 kts 65°
2026-04-30 20:06 38.18121 13.10700 53 ft 9 kts 65°
2026-04-30 20:06 38.18152 13.10789 53 ft 12 kts 66°
2026-04-30 20:07 38.18205 13.10950 50 ft 24 kts 68°
2026-04-30 20:07 38.18271 13.11149 51 ft 24 kts 66°
2026-04-30 20:07 38.18403 13.11540 53 ft 24 kts 67°
2026-04-30 20:08 38.18469 13.11734 51 ft 24 kts 67°
2026-04-30 20:08 38.18542 13.11886 53 ft 20 kts 31°
2026-04-30 20:08 38.18647 13.11900 51 ft 2 kts 340°
2026-04-30 20:08 38.18651 13.11887 52 ft 4 kts 276°
2026-04-30 20:09 38.18635 13.11843 49 ft 6 kts 237°
2026-04-30 20:09 38.18611 13.11791 52 ft 7 kts 251°
2026-04-30 20:09 38.18607 13.11693 53 ft 9 kts 277°
2026-04-30 20:10 38.18478 13.11150 53 ft 38 kts 246°
2026-04-30 20:10 38.18429 13.11007 53 ft 15 kts 246°
2026-04-30 20:10 38.18389 13.10893 53 ft 14 kts 245°
2026-04-30 20:11 38.18308 13.10645 53 ft 20 kts 247°
2026-04-30 20:11 38.18255 13.10487 51 ft 14 kts 247°
2026-04-30 20:11 38.18252 13.10378 53 ft 13 kts 309°
2026-04-30 20:12 38.18387 13.10499 53 ft 16 kts 21°
2026-04-30 20:12 38.18454 13.10568 53 ft 0 kts 58°
2026-04-30 20:12 38.18462 13.10583 53 ft 5 kts 52°
2026-04-30 20:13 38.18499 13.10579 53 ft 6 kts 333°
2026-04-30 20:13 38.18537 13.10557 53 ft 0 kts 338°